Maple Lake, MN

7:15 PM CST on November 20, 2017 (GMT -0600)
Maple Lake Municipal

Weather History for KMGG - April, 2013

Change the Weather History Date:

Thursday, April 18, 2013

  Actual Average (KSTC) Record (KSTC)
Temperature  
Mean Temperature 32 °F -  
Max Temperature 33 °F 58 °F 88 °F (1987)
Min Temperature 31 °F 34 °F 17 °F (1928)
Degree Days  
Heating Degree Days 33    
Moisture  
Dew Point 32 °F    
Average Humidity 97    
Maximum Humidity 99    
Minimum Humidity 95    
Precipitation  
Precipitation 0.14 in - - ()
Sea Level Pressure  
Sea Level Pressure 29.73 in    
Wind  
Wind Speed 13 mph (North)    
Max Wind Speed 20 mph    
Max Gust Speed 26 mph    
Visibility 3 miles    
Events Snow    
Averages and records for this station are not official NWS values.
T = Trace of Precipitation, MM = Missing Value Source: NWS Daily Summary

Daily Weather History Graph

Daily Weather History Graph

Search for Another Location

Airport or City:

Trip Planner

Search our weather history database for the weather conditions in past years. The results will help you decide how hot, cold, wet, or windy it might be!

Date:

Astronomy

Apr. 18, 2013 Rise Set
Actual Time 6:25 AM CDT 8:06 PM CDT
Civil Twilight 5:54 AM CDT 8:37 PM CDT
Nautical Twilight 5:16 AM CDT 9:15 PM CDT
Astronomical Twilight 4:35 AM CDT 9:56 PM CDT
Moon 12:34 PM CDT (4/18) 2:24 AM CDT (4/18)
Length of Visible Light 14h 43m
Length of Day
13h 40m
First Quarter, 52% of the Moon is Illuminated
Apr 18
First Quarter
Apr 25
Full
May 2
Last Quarter
May 9
New
May 17
First Quarter

Hourly Weather History & Observations

Time (CDT) Temp. Windchill Dew Point Humidity Pressure Visibility Wind Dir Wind Speed Gust Speed Precip Events Conditions
12:16 AM 33.3 °F 24.6 °F 32.2 °F 96% 29.98 in 4.0 mi North 11.5 mph 18.4 mph N/A Snow Light Snow
12:36 AM 32.9 °F 24.7 °F 32.2 °F 97% 29.97 in 2.5 mi North 10.4 mph - N/A Snow Light Snow
12:56 AM 32.9 °F 24.1 °F 32.2 °F 97% 29.96 in 2.0 mi North 11.5 mph - N/A Snow Light Snow
1:16 AM 32.5 °F 24.2 °F 32.0 °F 98% 29.94 in 2.5 mi North 10.4 mph - N/A Snow Light Snow
1:36 AM 32.5 °F 23.7 °F 32.0 °F 98% 29.93 in 4.0 mi North 11.5 mph 18.4 mph N/A Snow Light Snow
1:56 AM 32.5 °F 23.2 °F 32.0 °F 98% 29.89 in 4.0 mi North 12.7 mph - N/A Snow Light Snow
2:16 AM 32.9 °F 24.7 °F 32.0 °F 96% 29.88 in 7.0 mi North 10.4 mph 19.6 mph N/A Snow Light Snow
2:36 AM 32.9 °F 23.2 °F 32.0 °F 96% 29.87 in 10.0 mi NNE 13.8 mph 19.6 mph N/A   Overcast
2:56 AM 32.9 °F 23.7 °F 32.0 °F 96% 29.87 in 10.0 mi NNE 12.7 mph 20.7 mph N/A   Overcast
3:16 AM 32.9 °F 24.7 °F 32.0 °F 96% 29.87 in 10.0 mi NNE 10.4 mph 17.3 mph N/A   Overcast
3:36 AM 32.9 °F 25.3 °F 32.0 °F 96% 29.88 in 10.0 mi North 9.2 mph - N/A   Overcast
3:56 AM 32.5 °F 24.2 °F 31.8 °F 97% 29.87 in 10.0 mi North 10.4 mph - N/A   Overcast
4:36 AM 32.4 °F 24.0 °F 31.8 °F 98% 29.88 in 7.0 mi NNW 10.4 mph - N/A   Overcast
4:56 AM 32.4 °F 23.5 °F 32.0 °F 99% 29.88 in 3.0 mi NNW 11.5 mph - N/A   Overcast
5:16 AM 32.0 °F 22.5 °F 31.6 °F 99% 29.85 in 2.5 mi North 12.7 mph 16.1 mph N/A Snow Light Snow
5:36 AM 32.0 °F 24.2 °F 31.8 °F 99% 29.83 in 1.5 mi North 9.2 mph 18.4 mph N/A Snow Light Snow
5:56 AM 32.0 °F 22.5 °F 31.8 °F 99% 29.85 in 3.0 mi North 12.7 mph 16.1 mph N/A Snow Light Snow
6:16 AM 32.0 °F 22.1 °F 31.8 °F 99% 29.82 in 3.0 mi North 13.8 mph - N/A Snow Light Snow
6:36 AM 32.0 °F 20.8 °F 31.8 °F 99% 29.82 in 5.0 mi North 17.3 mph 21.9 mph N/A Snow Light Snow
6:56 AM 32.0 °F 21.2 °F 31.5 °F 98% 29.79 in 3.0 mi North 16.1 mph 21.9 mph N/A Snow Light Snow
7:16 AM 32.0 °F 21.6 °F 31.1 °F 96% 29.80 in 4.0 mi North 15.0 mph 21.9 mph N/A   Overcast
7:36 AM 32.0 °F 20.8 °F 31.1 °F 96% 29.78 in 3.0 mi North 17.3 mph 21.9 mph N/A Snow Light Snow
7:56 AM 32.0 °F 23.0 °F 31.1 °F 96% 29.81 in 5.0 mi North 11.5 mph - N/A Snow Light Snow
8:16 AM 32.0 °F 21.6 °F 30.7 °F 95% 29.80 in 10.0 mi North 15.0 mph - N/A   Overcast
8:36 AM 32.2 °F 22.3 °F 31.1 °F 96% 29.79 in 7.0 mi North 13.8 mph 19.6 mph N/A   Overcast
8:56 AM 32.4 °F 22.1 °F 31.1 °F 95% 29.77 in 5.0 mi North 15.0 mph 19.6 mph N/A   Overcast
9:16 AM 32.4 °F 21.7 °F 31.3 °F 96% 29.75 in 5.0 mi North 16.1 mph 21.9 mph N/A   Overcast
9:36 AM 32.4 °F 22.1 °F 31.6 °F 97% 29.72 in 3.0 mi North 15.0 mph 23.0 mph N/A Snow Light Snow
9:56 AM 32.4 °F 21.7 °F 31.5 °F 96% 29.72 in 3.0 mi North 16.1 mph 24.2 mph N/A   Overcast
10:36 AM 32.5 °F 21.9 °F 31.3 °F 95% 29.70 in 4.0 mi North 16.1 mph 23.0 mph N/A Snow Light Snow
10:56 AM 32.5 °F 23.7 °F 31.3 °F 95% 29.73 in 1.5 mi North 11.5 mph 20.7 mph N/A Snow Light Snow
11:16 AM 32.9 °F 24.1 °F 31.8 °F 96% 29.72 in 0.8 mi North 11.5 mph - 0.01 in Snow Light Snow
11:36 AM 32.4 °F 23.5 °F 31.8 °F 98% 29.72 in 1.2 mi North 11.5 mph - 0.01 in Snow Light Snow
11:56 AM 32.7 °F 23.9 °F 32.0 °F 97% 29.71 in 1.0 mi North 11.5 mph - 0.01 in Snow Light Snow
12:16 PM 32.7 °F 23.0 °F 32.0 °F 97% 29.70 in 1.2 mi North 13.8 mph 20.7 mph 0.01 in Snow Light Snow
12:36 PM 32.5 °F 22.3 °F 32.0 °F 98% 29.70 in 0.8 mi North 15.0 mph - 0.01 in Snow Light Snow
12:56 PM 32.9 °F 22.4 °F 32.0 °F 96% 29.69 in 0.5 mi North 16.1 mph - 0.01 in Snow Snow
1:16 PM 32.5 °F 22.3 °F 32.0 °F 98% 29.69 in 0.5 mi North 15.0 mph 21.9 mph N/A Snow Snow
1:36 PM 32.7 °F 23.0 °F 32.0 °F 97% 29.69 in 0.8 mi North 13.8 mph 18.4 mph 0.01 in Snow Light Snow
1:56 PM 32.9 °F 22.0 °F 32.0 °F 96% 29.66 in 0.8 mi North 17.3 mph 23.0 mph 0.02 in Snow Light Snow
2:16 PM 32.9 °F 22.8 °F 32.0 °F 96% 29.67 in 0.5 mi North 15.0 mph 20.7 mph N/A Snow Light Snow
2:36 PM 32.9 °F 22.8 °F 32.0 °F 96% 29.65 in 0.5 mi North 15.0 mph - N/A Snow Snow
2:56 PM 32.9 °F 22.4 °F 32.0 °F 96% 29.65 in 0.2 mi North 16.1 mph 23.0 mph 0.01 in Snow Snow
3:16 PM 32.5 °F 21.5 °F 32.0 °F 98% 29.64 in 0.2 mi North 17.3 mph 21.9 mph 0.01 in Snow Snow
3:36 PM 32.7 °F 21.8 °F 32.0 °F 97% 29.64 in 0.5 mi North 17.3 mph 24.2 mph 0.01 in Snow Snow
3:56 PM 32.9 °F 22.0 °F 32.0 °F 96% 29.64 in 0.2 mi North 17.3 mph 25.3 mph 0.02 in Snow Heavy Snow
4:15 PM 32.9 °F 21.3 °F 32.0 °F 96% 29.63 in 0.2 mi North 19.6 mph 24.2 mph 0.01 in Snow Heavy Snow
4:36 PM 32.9 °F 22.0 °F 32.0 °F 96% 29.62 in 0.2 mi North 17.3 mph 26.5 mph 0.03 in Snow Snow
4:56 PM 32.9 °F 22.8 °F 32.2 °F 97% 29.61 in 0.5 mi North 15.0 mph - 0.03 in Snow Snow
5:16 PM 32.9 °F 22.0 °F 32.0 °F 96% 29.61 in 0.5 mi North 17.3 mph 24.2 mph 0.01 in Snow Snow
5:36 PM 32.9 °F 22.4 °F 32.0 °F 96% 29.60 in 0.5 mi North 16.1 mph 20.7 mph 0.01 in Snow Light Snow
5:56 PM 32.9 °F 23.7 °F 32.0 °F 96% 29.61 in 0.8 mi NNW 12.7 mph - 0.01 in Snow Light Snow
6:16 PM 32.9 °F 22.4 °F 32.0 °F 96% 29.60 in 0.8 mi North 16.1 mph 26.5 mph N/A Snow Light Snow
6:36 PM 32.9 °F 23.7 °F 32.0 °F 96% 29.59 in 1.5 mi NNW 12.7 mph - N/A Snow Light Snow
6:56 PM 32.5 °F 22.3 °F 32.0 °F 98% 29.60 in 1.0 mi NNW 15.0 mph 21.9 mph N/A Snow Light Snow
7:16 PM 32.4 °F 22.1 °F 31.8 °F 98% 29.60 in 0.8 mi NNW 15.0 mph 20.7 mph N/A Snow Snow
7:36 PM 32.2 °F 21.8 °F 31.8 °F 99% 29.61 in 0.5 mi NNW 15.0 mph 19.6 mph N/A Snow Snow
7:56 PM 32.0 °F 22.1 °F 31.8 °F 99% 29.61 in 0.5 mi NNW 13.8 mph 18.4 mph 0.01 in Snow Snow
8:16 PM 32.0 °F 23.0 °F 31.6 °F 99% 29.61 in 1.0 mi NW 11.5 mph - N/A Snow Light Snow
8:36 PM 32.0 °F 21.6 °F 31.3 °F 97% 29.62 in 1.0 mi NNW 15.0 mph 21.9 mph 0.01 in Snow Snow
8:56 PM 32.0 °F 22.1 °F 31.1 °F 96% 29.62 in 1.0 mi NW 13.8 mph - 0.01 in Snow Snow
9:16 PM 32.0 °F 22.1 °F 31.5 °F 98% 29.62 in 1.0 mi NW 13.8 mph 20.7 mph 0.01 in Snow Snow
9:36 PM 32.0 °F 21.6 °F 31.5 °F 98% 29.62 in 1.0 mi NW 15.0 mph 20.7 mph 0.01 in Snow Snow
9:56 PM 32.0 °F 20.8 °F 31.1 °F 96% 29.62 in 1.0 mi NNW 17.3 mph 25.3 mph 0.01 in Snow Snow
10:36 PM 32.0 °F 20.5 °F 31.5 °F 98% 29.61 in 1.2 mi NW 18.4 mph 23.0 mph N/A Snow Light Snow
10:56 PM 32.0 °F 22.1 °F 31.1 °F 96% 29.60 in 1.0 mi NNW 13.8 mph 20.7 mph N/A Snow Light Snow
11:16 PM 31.8 °F 22.3 °F 31.1 °F 97% 29.58 in 1.2 mi NNW 12.7 mph 19.6 mph N/A Snow Light Snow
11:36 PM 31.8 °F 21.0 °F 30.9 °F 96% 29.58 in 1.5 mi NW 16.1 mph 20.7 mph N/A Snow Light Snow
11:56 PM 31.8 °F 21.4 °F 30.9 °F 96% 29.56 in 1.8 mi NW 15.0 mph 20.7 mph N/A Snow Light Snow